Simultaneous Nadir Overpasses (SNOs) Predictions

Prediction of SNOs between NOAA-15 and METOP-C Satellite Orbit:

Table of predicted SNOs for the next 14.0 days since TLE Epoch: 3/16/2024
Index Date (NOAA-15) Time (NOAA-15) Lat,Lon (NOAA-15) SZA (NOAA-15 ) Date (METOP-C) Time (METOP-C) Lat,Lon (METOP-C) SZA (METOP-C ) Distance(km) Time Diff (sec)
1 03/16/2024 22:49:31 81.06,-124.05 84.01 03/16/2024 22:48:19 81.08,-124.08 84.00 1.84 72
2 03/16/2024 23:39:59 -81.07, 43.22 96.01 03/16/2024 23:39:01 -81.08, 43.16 96.03 1.31 58
3 03/17/2024 00:30:32 81.08,-149.59 83.97 03/17/2024 00:29:41 81.07,-149.58 83.95 0.47 51
4 03/17/2024 01:21:00 -81.08, 17.68 96.06 03/17/2024 01:20:23 -81.07, 17.66 96.08 1.43 37
5 03/17/2024 02:11:32 81.07,-174.76 83.95 03/17/2024 02:11:02 81.08,-174.71 83.95 1.23 30
6 03/17/2024 03:02:00 -81.08, -7.50 96.08 03/17/2024 03:01:44 -81.08, -7.47 96.08 0.50 16
7 03/17/2024 03:52:33 81.09, 159.70 83.90 03/17/2024 03:52:24 81.07, 159.78 83.90 2.02 9
8 03/17/2024 04:43:00 -81.07, -32.67 96.10 03/17/2024 04:43:05 -81.09, -32.60 96.08 1.75 5
9 03/17/2024 05:33:33 81.08, 134.52 83.88 03/17/2024 05:33:45 81.08, 134.65 83.90 2.25 12
10 03/17/2024 06:24:01 -81.09, -58.22 96.14 03/17/2024 06:24:27 -81.08, -58.10 96.13 2.25 26
11 03/17/2024 07:14:33 81.08, 109.35 83.86 03/17/2024 07:15:06 81.09, 109.52 83.90 3.25 33
12 03/17/2024 08:05:01 -81.09, -83.39 96.17 03/17/2024 08:05:48 -81.09, -83.23 96.13 2.81 47
13 03/17/2024 08:55:33 81.08, 84.18 83.84 03/17/2024 08:56:28 81.08, 84.02 83.85 2.90 55
14 03/17/2024 09:46:01 -81.08,-108.57 96.19 03/17/2024 09:47:10 -81.08,-108.73 96.18 2.82 69



Historial Predications of SNOs between NOAA-15 and METOP-C
